Probability
0 0 0 0 0 0 0 0 0 0 0 0 0 0 0 0 0 0 0 0 0 0 0 0 0 0 0 0 0 0 1 2 2 3 14 32 49 58
0 0 0 0 0 0 0 0 0 0 0 0 0 0 0 0 0 0 0 0 0 0 0 0 0 0 0 0 0 0 0 1 1 3 16 34 50 57
0 0 0 0 0 0 0 0 0 0 0 0 0 0 0 0 0 0 0 0 0 0 0 0 0 0 0 0 0 0 0 0 0 3 14 32 47 54
0 0 0 0 0 0 0 0 0 0 0 0 0 0 0 0 0 0 0 0 0 0 0 0 0 0 0 0 0 0 0 0 0 2 8 20 35 45
0 0 0 0 0 0 0 0 0 0 0 0 0 0 0 0 0 0 0 0 0 0 0 0 0 0 0 0 0 0 0 0 0 0 2 7 18 29
0 0 0 0 0 0 0 0 0 0 0 0 0 0 0 0 0 0 0 0 0 0 0 0 0 0 0 0 0 0 0 0 0 0 0 1 5 10
0 0 0 0 0 0 0 0 0 0 0 0 0 0 0 0 0 0 0 0 0 0 0 0 0 0 0 0 0 0 0 0 0 0 0 0 0 1
0 0 0 0 0 0 0 0 0 0 0 0 0 0 0 0 0 0 0 0 0 0 0 0 0 0 0 0 0 0 0 0 0 0 0 0 0 0
0 0 0 0 0 0 0 0 0 0 0 0 0 0 0 0 0 0 0 0 0 0 0 0 0 0 0 0 0 0 0 0 0 0 0 0 0 0
0 0 0 0 0 0 0 0 0 0 0 0 0 0 0 0 0 0 0 0 0 0 0 0 0 0 0 0 0 0 0 0 0 0 0 0 0 0
0 0 0 0 0 0 0 0 0 0 0 0 0 0 0 0 0 0 0 0 0 0 0 0 0 0 0 0 0 0 0 0 0 0 0 0 0 0
0 0 0 0 0 0 0 0 0 0 0 0 0 0 0 0 0 0 0 0 0 0 0 0 0 0 0 0 0 0 0 0 0 0 0 0 0 0
0 0 0 0 0 0 0 0 0 0 0 0 0 0 0 0 0 0 0 0 0 0 0 0 0 0 0 0 0 0 0 0 0 0 0 0 0 0
0 0 0 0 0 0 0 0 0 0 0 0 0 0 0 0 0 0 0 0 0 0 0 0 0 0 0 0 0 0 0 0 0 0 0 0 0 0
0 0 0 0 0 0 0 0 0 0 0 0 0 0 0 0 0 0 0 0 0 0 0 0 0 0 0 0 0 0 0 0 0 0 0 0 0 0
0 0 0 0 0 0 0 0 0 0 0 0 0 0 0 0 0 0 0 0 0 0 0 0 0 0 0 0 0 0 0 0 0 0 0 0 0 0
0 0 0 0 0 0 0 0 0 0 0 0 0 0 0 0 0 0 0 0 0 0 0 0 0 0 0 0 0 0 0 0 0 0 0 0 0 0
0 0 0 0 0 0 0 0 0 0 0 0 0 0 0 0 0 0 0 0 0 0 0 0 0 0 0 0 0 0 0 0 0 0 0 0 0 0
0 0 0 0 0 0 0 0 0 0 0 0 0 0 0 0 0 0 0 0 0 0 0 0 0 0 0 0 0 0 0 0 0 0 0 0 0 0
0 0 0 0 0 0 0 0 0 0 0 0 0 0 0 0 0 0 0 0 0 0 0 0 0 0 0 0 0 0 0 0 0 0 0 0 0 0
0 0 0 0 0 0 0 0 0 0 0 0 0 0 0 0 0 0 0 0 0 0 0 0 0 0 0 0 0 0 0 0 0 0 0 0 0 0
0 0 0 0 0 0 0 0 0 0 0 0 0 0 0 0 0 0 0 0 0 0 0 0 0 0 0 0 0 0 0 0 0 0 0 0 0 0
0 0 0 0 0 0 0 0 0 0 0 0 0 0 0 0 0 0 0 0 0 0 0 0 0 0 0 0 0 0 0 0 0 0 0 0 0 0
Wind_Speed
8 8 7 8 9 9 9 9 9 9 9 7 7 8 8 7 13 9 7 16 21 22 22 21 21 20 19 17 16 15 14 12 10 16 25 29 31 30
7 8 8 8 9 9 9 9 8 8 9 6 7 8 10 11 16 11 9 21 22 23 23 23 22 21 20 18 16 14 13 11 9 13 23 28 29 28
8 8 10 10 8 8 9 8 8 7 9 9 6 8 10 10 10 9 9 9 12 22 24 23 22 21 19 17 15 15 13 11 9 11 18 24 26 26
9 9 10 10 10 9 9 10 9 8 7 11 9 8 10 10 9 9 10 11 10 19 23 23 21 20 19 18 16 14 12 10 8 10 14 20 24 26
10 10 10 9 10 10 11 10 9 8 6 8 10 8 8 9 9 10 11 10 12 14 19 20 21 20 19 18 16 13 11 9 8 9 11 16 20 24
11 11 10 10 11 11 11 10 9 8 6 7 9 8 7 7 7 8 10 9 10 12 13 14 16 19 20 19 17 13 10 9 8 9 11 13 18 23
10 10 10 14 17 15 12 10 9 6 6 8 9 8 7 7 7 7 10 11 11 7 7 8 8 7 9 15 16 12 10 10 9 9 11 13 17 21
8 8 8 10 16 22 25 22 16 10 8 8 7 7 8 7 7 8 9 10 8 6 8 9 7 7 7 7 11 11 9 9 10 10 12 13 16 18
7 6 7 9 14 10 15 15 15 19 18 11 8 8 8 8 8 10 9 10 11 10 9 9 7 7 6 8 12 11 9 8 9 11 13 14 16 17
6 5 6 6 11 14 7 7 7 9 13 9 8 9 9 9 9 10 10 11 12 11 9 7 6 5 5 5 10 11 10 9 10 11 15 16 16 16
6 6 8 6 18 21 10 9 10 8 12 17 18 15 17 16 12 6 6 7 8 6 3 5 5 4 4 5 7 10 9 10 11 13 16 18 17 15
5 6 12 15 19 20 9 9 12 8 8 10 11 13 10 11 14 6 4 6 6 6 4 5 5 4 2 3 3 4 5 7 10 13 16 18 19 11
6 5 7 19 20 20 16 9 14 13 9 9 8 7 6 5 6 6 6 6 7 7 5 5 5 5 2 2 2 3 3 3 5 8 14 19 20 14
6 6 9 19 19 19 14 17 20 16 8 8 8 7 7 6 6 7 8 9 10 12 11 7 5 5 4 0 2 2 2 2 4 5 8 16 17 16
7 15 17 19 17 12 16 20 16 9 8 9 9 8 7 8 8 7 7 7 9 11 11 11 9 7 5 2 1 1 1 1 3 5 7 10 11 12
7 11 17 17 14 14 13 11 8 8 9 8 9 8 8 7 6 6 5 4 4 4 6 7 7 7 4 3 0 1 1 1 3 5 6 7 8 9
7 4 5 6 7 7 7 7 7 8 9 9 9 9 9 8 8 7 5 4 3 4 4 3 4 4 2 2 1 2 1 1 1 3 6 7 7 9
9 6 7 8 9 9 9 8 8 9 9 9 9 10 9 9 8 7 6 5 4 4 4 5 4 2 1 3 7 3 2 1 2 2 4 7 7 8
6 6 7 8 8 8 7 6 6 8 7 8 9 9 9 9 8 8 8 7 6 5 4 4 4 4 2 2 5 10 3 1 3 4 4 5 6 7
5 6 7 8 8 8 7 7 6 6 6 7 7 8 9 9 9 9 8 8 7 6 5 5 5 4 3 2 2 6 11 4 4 5 4 6 7 11
7 7 7 8 8 8 7 6 6 6 6 6 6 7 8 8 8 9 8 13 9 6 7 6 6 7 3 1 3 4 7 14 12 6 4 8 8 7
7 7 7 8 8 8 7 7 5 5 5 5 6 6 7 7 8 9 9 8 7 6 6 6 6 5 3 3 5 5 4 7 14 20 18 10 6 8
6 7 7 8 7 7 7 7 6 4 4 4 5 6 7 6 7 7 8 8 8 8 7 6 6 4 4 3 4 5 8 8 8 11 13 18 24 29
Wind_Direction
299 300 304 306 305 301 296 291 285 295 302 301 309 314 317 311 307 302 289 289 287 284 281 278 277 278 281 286 291 294 298 284 253 214 202 201 204 202
297 300 303 303 304 305 304 303 297 293 298 300 305 307 312 311 306 309 306 299 292 287 280 273 269 269 271 276 283 287 290 285 257 221 206 202 202 199
296 300 300 302 301 307 306 307 307 303 301 304 303 304 300 300 300 298 297 288 281 279 276 271 264 261 262 265 271 279 284 283 261 228 209 203 200 195
288 291 293 300 301 302 301 303 302 298 300 309 310 307 303 301 301 306 306 298 285 278 272 268 262 257 254 256 260 269 276 279 267 237 214 203 198 194
277 280 284 289 294 294 294 294 295 300 299 299 304 304 303 308 314 312 309 304 298 287 277 266 259 253 248 249 250 258 265 268 264 242 218 204 197 191
271 274 276 279 282 285 292 292 294 295 295 296 298 301 304 310 320 320 316 316 308 298 286 274 258 249 243 242 241 247 256 258 254 247 220 200 195 189
269 271 275 295 309 311 312 308 304 298 299 297 295 300 306 317 318 317 313 314 304 291 306 289 267 243 229 233 232 236 242 245 242 239 217 195 190 187
272 272 281 302 309 320 318 319 327 319 305 297 297 299 298 301 306 308 311 312 309 326 334 303 276 247 223 215 216 218 229 237 236 229 208 189 184 183
283 284 302 311 319 300 306 326 326 321 317 310 300 287 287 287 292 295 294 295 288 295 302 285 265 245 223 214 206 210 224 236 235 220 198 184 181 179
292 291 292 296 304 315 335 324 306 303 306 306 282 275 275 269 263 273 284 291 286 271 248 262 267 245 217 203 200 205 222 232 227 212 192 181 176 177
304 311 317 305 313 334 347 327 314 306 321 324 319 313 308 306 297 287 288 296 297 291 279 269 277 260 207 195 195 200 216 222 214 202 189 179 171 166
310 315 325 322 328 340 345 327 319 329 333 323 320 315 309 302 303 291 271 277 283 288 310 321 291 278 203 182 182 190 202 207 201 195 186 178 167 162
316 314 310 323 335 341 344 332 338 352 334 320 314 306 299 287 279 266 249 248 253 261 289 330 301 296 272 160 164 183 189 188 184 184 181 174 169 166
322 312 310 329 340 343 342 343 352 350 331 327 324 319 314 302 289 276 260 245 239 247 263 276 277 294 309 241 143 155 177 180 173 172 171 168 167 165
329 334 337 341 342 337 338 348 352 341 337 335 329 324 316 304 299 291 276 259 250 245 249 246 248 269 277 277 121 124 127 174 171 165 165 167 167 163
329 332 338 339 341 338 341 341 340 342 346 335 329 325 321 321 318 316 307 301 283 276 257 249 253 258 275 298 16 111 132 174 162 156 153 151 154 158
341 331 326 330 335 335 335 337 339 343 348 343 340 338 337 339 338 335 327 325 326 328 324 313 281 261 267 352 34 74 77 63 106 136 149 142 148 152
357 338 338 339 338 338 338 339 341 345 347 347 348 345 344 345 346 344 348 348 350 345 342 336 331 320 348 39 26 36 43 42 58 93 135 132 137 142
358 338 337 336 334 333 332 333 335 335 338 344 349 349 349 350 353 354 356 356 353 348 348 350 354 358 37 39 11 14 29 45 72 67 82 107 121 136
344 337 336 334 333 332 331 331 332 333 338 344 348 351 351 354 358 359 358 359 353 349 354 3 8 8 13 8 19 11 17 41 90 93 87 87 84 97
339 336 334 332 330 328 327 326 326 330 337 342 347 350 351 355 360 360 358 2 5 355 356 351 335 332 319 0 65 38 25 42 61 75 96 110 105 109
334 332 330 327 327 326 326 325 327 331 339 344 345 349 351 355 359 359 359 359 358 351 340 333 332 345 14 62 90 86 62 52 53 53 50 65 117 134
325 324 323 324 324 324 326 327 330 334 343 349 348 349 352 355 356 358 356 358 358 356 353 353 356 10 30 63 86 87 82 72 66 65 57 72 89 100